Home > Weather > Albuquerque > Past weeks

Flag for USA Past Weather in Albuquerque, New Mexico, USA — Yesterday and Last 2 Weeks

Now
80 °F

Passing clouds.


Feels Like: 78 °F
Forecast: 52 / 85 °F
Wind: 9 mph from Southwest

Location: Albuquerque International Airport

Current Time: May 28, 2016 at 6:14:46 PM

Latest Report: May 28, 2016 at 4:52 PM


Visibility: 10 mi

Pressure: 29.83 "Hg (25.11 "Hg at 1510m altitude)

Humidity: 12%

Dew Point: 23 °F

Location of AlbuquerqueLocation

Past Weather in Albuquerque — Graph

°F

Albuquerque Temperature Yesterday

Maximum temperature yesterday: 75 °F (at 2:52 PM)
Minimum temperature yesterday: 45 °F (at 3:52 AM)
Average temperature yesterday: 62 °F

High & Low Weather Summary for the Past Weeks

 TemperatureHumidityPressure
High86 °F (May 13, 5:52 PM)86% (May 19, 3:52 AM)30.23 "Hg (May 19, 3:52 AM)
Low42 °F (May 19, 6:52 AM)6% (May 23, 5:52 PM)29.54 "Hg (May 15, 6:52 PM)
Average65 °F31%29.82 "Hg
* Reported May 13 4:52 PM — May 28 4:52 PM, Albuquerque, Weather by CustomWeather, © 2016

Note: Actual official high and low records may vary slightly from our data, if they occured in-between our weather recording intervals... More about our weather records

Advertising

Albuquerque Weather History for the Previous 24 Hours

Scroll right to see more
 ConditionsComfort  
Time TempWeatherWind HumidityBarometerVisibility
4:52 PM
Sat, May 28
80 °FPassing clouds.9 mph12%29.83 "Hg10 mi
3:52 PM78 °FPassing clouds.No wind12%29.84 "Hg10 mi
2:52 PM77 °FPassing clouds.5 mph13%29.85 "Hg10 mi
1:52 PM76 °FPassing clouds.8 mph14%29.86 "Hg10 mi
12:52 PM76 °FPassing clouds.8 mph14%29.86 "Hg10 mi
11:52 AM74 °FPassing clouds.No wind14%29.87 "Hg10 mi
10:52 AM70 °FPassing clouds.3 mph22%29.89 "Hg10 mi
9:52 AM66 °FPassing clouds.3 mph27%29.90 "Hg10 mi
8:52 AM61 °FSunny.No wind32%29.90 "Hg10 mi
7:52 AM56 °FSunny.6 mph39%29.91 "Hg10 mi
6:52 AM52 °FClear.8 mph43%29.90 "Hg10 mi
5:52 AM52 °FPassing clouds.5 mph45%29.87 "Hg10 mi
4:52 AM54 °FClear.6 mph41%29.84 "Hg10 mi
3:52 AM56 °FClear.5 mph39%29.83 "Hg10 mi
2:52 AM56 °FClear.3 mph30%29.81 "Hg10 mi
1:52 AM57 °FPassing clouds.5 mph28%29.80 "Hg10 mi
12:52 AM61 °FPassing clouds.7 mph26%29.78 "Hg10 mi
11:52 PM
Fri, May 27
65 °FPassing clouds.7 mph20%29.78 "Hg10 mi
10:52 PM67 °FPartly cloudy.6 mph20%29.77 "Hg10 mi
9:52 PM68 °FPassing clouds.5 mph19%29.77 "Hg10 mi
8:52 PM70 °FScattered clouds.14 mph18%29.75 "Hg10 mi
7:52 PM70 °FBroken clouds.9 mph19%29.73 "Hg10 mi
6:52 PM71 °FBroken clouds.21 mph19%29.71 "Hg10 mi
Weather by CustomWeather, © 2016

See weather overviewHow to use our weather pages